Regional Weather Roundup
Issued by NWS Charleston, SC

Current Version | Previous Version | Text Only | Print | Product List | Glossary Off
Versions: 1 2 3 4 5 6 7 8 9 10 11 12 13 14 15 16 17 18 19 20 21 22 23 24 25 26 27 28 29 30 31 32 33 34 35 36 37 38 39 40 41 42 43 44 45 46 47 48

000
ASUS42 KCHS 212325
RWRCHS

REGIONAL WEATHER ROUNDUP
NATIONAL WEATHER SERVICE CHARLESTON SC
600 PM EST TUE FEB 21 2017

NOTE: "FAIR" INDICATES FEW OR NO CLOUDS BELOW 12,000 FEET WITH NO
SIGNIFICANT WEATHER AND/OR OBSTRUCTIONS TO VISIBILITY.

NOT ALL STATIONS ARE QUALITY CONTROLLED. USE DATA WITH CAUTION...
ESPECIALLY DEWPOINT OBSERVATIONS.

SCZ027-030-031-034>040-042>050-220000-
...SOUTHEAST SOUTH CAROLINA...

CITY           SKY/WX    TMP DP  RH WIND       PRES   REMARKS
N CHARLESTON   CLOUDY    65  58  78 E8        30.07F
WATERFRONT PRK   N/A     63  60  90 E13       30.06S
MOUNT PLEASANT FAIR      63  59  88 E7        30.09R
JOHNS ISLAND   MOCLDY    63  59  88 NE10      30.08R
PINOPOLIS        N/A     66  57  72 VRB3      30.00R
MONCKS CORNER  CLOUDY    64  55  72 E7        30.08S
SUMMERVILLE    CLOUDY    66  57  72 E5        30.08F
BEAUFORT MCAS  CLOUDY    66  62  87 E10       30.06S
BEAUFORT ARPT  MOCLDY    64  59  82 E6        30.06R
HILTON HEAD IS PTCLDY    64  61  88 E5        30.06S
WALTERBORO     CLOUDY    66  57  72 E6        30.07S
ALLENDALE      CLOUDY    68  61  77 CALM      30.04S

...SOUTHERN MIDLANDS AND PEE DEE...

CITY           SKY/WX    TMP DP  RH WIND       PRES   REMARKS
GEORGETOWN     FAIR      59  54  82 E6        30.11F
KINGSTREE      FAIR      63  52  67 E8        30.09F
ORANGEBURG     CLOUDY    67  55  65 VRB3      30.07S
BARNWELL       CLOUDY    66  61  82 CALM      30.06R
AIKEN          CLOUDY    64  54  68 E7        30.09S
MANNING        MOCLDY    63  45  51 MISG      30.09S
COLUMBIA       CLOUDY    67  53  61 E7        30.06F
SUMTER         CLOUDY    66  52  60 SE8       30.07R
FLORENCE       CLOUDY    66  50  56 SE7       30.10S
MYRTLE BEACH   MOCLDY    59  54  82 E12       30.13S
N MYRTLE BEACH MOCLDY    60  53  77 E8        30.11S

$$

GAZ063-065-086>088-099>101-113>116-118-119-134>141-150-220000-
...SOUTHEAST GEORGIA...

CITY           SKY/WX    TMP DP  RH WIND       PRES   REMARKS
SAVANNAH ARPT  CLOUDY    70  59  68 E7        30.04R
HUNTER AAF     MOCLDY    69  64  85 E9        30.01R
FORT STEWART   CLOUDY    71  60  66 E6        30.00S
STATESBORO     CLOUDY    71  62  73 CALM      30.02S
SYLVANIA       CLOUDY   N/A N/A N/A SE6       30.04S
CLAXTON        CLOUDY   N/A N/A N/A E3        30.02R

...CSRA...CENTRAL AND FAR SOUTHEAST GEORGIA...

CITY           SKY/WX    TMP DP  RH WIND       PRES   REMARKS
THOMSON        CLOUDY    69  60  72 E5        30.08R
AUGUSTA-BUSH   CLOUDY    71  58  63 E9        30.03R
AUGUSTA-DANIEL CLOUDY    70  55  59 E10       30.04S
SWAINSBORO     CLOUDY    72  59  64 E3        30.02S
VIDALIA        MOCLDY    72  63  73 SE6       30.01R
EASTMAN        FAIR      70  51  50 E3        30.01S
HAZLEHURST     MOCLDY    72  61  69 CALM      29.98S
ALMA           MOCLDY    72  60  66 SE6       29.98F
WAYCROSS       PTCLDY    74  64  70 SE5       29.98F
JESUP          FAIR      72  59  64 SE5       30.01S
BAXLEY         FAIR      70  63  78 CALM      29.99S
BRUNSWICK      LGT RAIN  70  66  88 SE5       30.03R
SAINT SIMONS   CLOUDY    68  63  84 SE5       30.02R

$$

SCZ027-028-034-036>038-045-046-048>050-GAZ119-141-220000-
...LAKE AND SUPPLEMENTAL COASTAL OBSERVATIONS...

STATION/POSITION TIME  TEMP    WIND        PRES    WAVE   SWELL
                       AIR SEA DIR/SP/G            HT/PER HT/PER/DIR
                 (UTC) (F)     (DEG/KT/KT) (MB)    (FT/S) (FT/S/D)
WINYAH BAY       2245   59      60/  7     1019.0S
LAKE MURRAY      2250   64      80/  7/  9 1017.9R
ACE BASIN NERRS  2245   67      70/  3     1018.0S
FORT PULASKI     2300   67 61  120/  8/ 11 1017.3
SAPELO ISLAND    2300   69     100/  5     1016.0

$$

ANZ835-935-AMZ111-154-330-350-352-354-370-450-454-472-220000-
...C-MAN AND BUOY OBSERVATIONS...

STATION/POSITION TIME  TEMP    WIND        PRES    WAVE   SWELL
                       AIR SEA DIR/SP/G            HT/PER HT/PER/DIR
                 (UTC) (F)     (DEG/KT/KT) (MB)    (FT/S) (FT/S/D)
BUOY 41004       2250   70 69  100/ 16/ 19 1017.5F   4/ 6   2/ 90/11
BUOY 41008       2250   66 63  110/  8/ 10 1016.2R   3/ 5   3/100/ 5
FOLLY BEACH CMAN 2300   60      60/ 14/ 15 1018.9F
CAPERS NEARSHORE 2208   60 59   60/ 14/ 17 1018.7R
FRIPP NEARSHORE  2308   62 60   70/  8/ 10 1017.5R


STATION/POSITION TIME  TEMP    WIND        PRES    WAVE   SWELL
                       AIR SEA DIR/SP/G            HT/PER HT/PER/DIR
                 (UTC) (F)     (DEG/KT/KT) (MB)    (FT/S) (FT/S/D)
5E ST. MARYS GA  2300      65                N/A     2/ 5
FRYING PAN BUOY  2310   68 68   90/ 14/ 16 1019.5
BUOY 41025       2250   63 75  130/ 10/ 12 1021.7R   4/ 9   5/ 40/ 9
CAPE LOOKOUT NC  2300   57      30/ 11/ 12 1021.0R
BUOY 41002       2250   65 71   70/ 12/ 16 1020.4R   5/ 7   3/ 10/ 7
BUOY 41010       NOT AVBL
ST AUGUSTINE FL  2300   69 69  130/ 12/ 13 1016.5F


$$




USA.gov is the U.S. government's official web portal to all federal, state and local government web resources and services.